Home   Weather   Jujuy   Past weeks

Flag for Argentina Past Weather in Jujuy, Jujuy, Argentina — Yesterday and Last 2 Weeks

Now
81 °F

Broken clouds.


Feels Like: 83 °F
Forecast: 68 / 85 °F
Wind: 16 mph from South

Location: Jujuy Aerodrome

Current Time: Dec 6, 2016 at 3:03:35 pm

Latest Report: Dec 6, 2016 at 2:00 pm


Visibility: N/A

Pressure: 29.89 "Hg (21.50 "Hg at 2895m altitude)

Humidity: 62%

Dew Point: 66 °F

Location of JujuyLocation

Past Weather in Jujuy — Graph

°F

Jujuy Temperature Yesterday

Maximum temperature yesterday: 91 °F (at 3:00 pm)
Minimum temperature yesterday: 72 °F (at 6:00 am)
Average temperature yesterday: 81 °F

High & Low Weather Summary for the Past Weeks

 TemperatureHumidityPressure
High91 °F (Dec 5, 3:00 pm)100% (Nov 23, 6:00 am)30.30 "Hg (Nov 23, 6:00 am)
Low59 °F (Nov 22, 12:00 am)45% (Nov 25, 1:00 pm)29.65 "Hg (Nov 26, 5:00 pm)
Average71 °F78%29.96 "Hg
* Reported Nov 21 2:00 pm — Dec 6 2:00 pm, Jujuy, Weather by CustomWeather, © 2016

Note: Actual official high and low records may vary slightly from our data, if they occured in-between our weather recording intervals... More about our weather records

Advertising

Jujuy Weather History for the Previous 24 Hours

Scroll right to see more
 ConditionsComfort  
Time TempWeatherWind HumidityBarometerVisibility
2:00 pm
Tue, Dec 6
81 °FBroken clouds.16 mph62%29.89 "HgN/A
1:00 pm79 °FBroken clouds.16 mph65%29.92 "HgN/A
12:00 pm81 °FMore clouds than sun.9 mph62%29.92 "HgN/A
11:00 am82 °FScattered clouds.9 mph62%29.92 "HgN/A
10:00 am81 °FPartly sunny.7 mph66%29.92 "HgN/A
9:00 am79 °FSunny.No wind70%29.92 "Hg10 mi
8:00 am75 °FSunny.No wind78%29.89 "Hg10 mi
7:00 am72 °FSunny.No wind83%29.86 "Hg10 mi
6:00 am73 °FClear.3 mph78%29.80 "Hg10 mi
5:00 am73 °FClear.5 mph78%29.80 "Hg10 mi
4:00 am75 °FPassing clouds.5 mph74%29.83 "HgN/A
3:00 am73 °FThundershowers. Passing clouds.6 mph78%29.83 "HgN/A
2:00 am72 °FClear.6 mph94%29.83 "Hg10 mi
1:00 am73 °FPassing clouds.No wind78%29.80 "HgN/A
12:00 am75 °FThundershowers. Passing clouds.7 mph74%29.77 "HgN/A
11:00 pm
Mon, Dec 5
75 °FThundershowers. Passing clouds.5 mph78%29.83 "HgN/A
10:00 pm79 °FThundershowers. Passing clouds.7 mph65%29.80 "HgN/A
9:00 pm81 °FThundershowers. Passing clouds.No wind58%29.77 "HgN/A
8:00 pm84 °FThundershowers. Passing clouds.No wind51%29.74 "HgN/A
7:00 pm88 °FScattered clouds.8 mph49%29.71 "HgN/A
6:00 pm90 °FScattered clouds.7 mph46%29.68 "HgN/A
5:00 pm90 °FScattered clouds.7 mph49%29.68 "HgN/A
4:00 pm91 °FScattered clouds.7 mph46%29.71 "HgN/A
3:00 pm91 °FPassing clouds.6 mph49%29.71 "HgN/A
Weather by CustomWeather, © 2016

See weather overviewHow to use our weather pages